Location: Unspecified
(0.0000°N, 0.0000°E)
Time: 03:06:08
(UTC+00:00)

Explorer 7 - Pass Details

Date: 28 October 2021
Orbit: 483 x 675 km, 50.3° (Epoch: 27 November)

Event Time Altitude Azimuth Distance (km) Brightness Sun altitude
Exits shadow 03:57:13 28° 17° (NNE) 1,243 8.6 -25.9°
Maximum altitude 03:58:44 35° 53° (NE) 1,082 8.5 -25.5°
Drops below altitude 10° 04:03:10 10° 119° (ESE) 2,100 10.8 -24.5°
Sets 04:05:41 0° 127° (SE) 3,007 11.7 -23.8°
